P/2022 G1 ( McNaught )

Japanese version
Home page
Updated on April 18, 2022

---------------------------------------------------------------------

* Profile

Recovery Date April 5, 2022
Magnitude 20.0 mag
Recoverer Hidetaka Sato (iTelescope Observatory, Siding Spring)

* Orbital Elements

Epoch 2022 Aug. 9.0 TT = JDT 2459800.5                                          
T 2022 Aug. 19.14593 TT                                 Rudenko                 
q   2.3224819            (2000.0)            P               Q                  
n   0.08875299     Peri.  310.97948     +0.95406016     +0.29434424             
a   4.9775321      Node    32.01866     -0.23330361     +0.84700628             
e   0.5334070      Incl.    6.05781     -0.18798574     +0.44265318             
P  11.1                                                                         
From 141 observations 2011 Aug. 29-2022 Apr. 11, mean residual 0".5.            

* Magnitudes Graph

        m1 = 13.5 + 5 log d + 10.0 log r

---------------------------------------------------------------------

The orbital elements are published on M.P.E.C. 2022-H01.
The magnitudes graphs are made with Comet for Windows.

---------------------------------------------------------------------

Copyright(C) Seiichi Yoshida (comet@aerith.net). All rights reserved.